www.pogodaiklimat.ru

АРХИВ ПОГОДЫ в Юкайе

Время (UTC), дата Ветер
(напр.,м/с)
 
Видим.   Явления Облачность Т
(С)
Тd
(С)
f
(%)
Тe
(С)
Тes
(С)
Комфортность

P
(гПа)

Po
(гПа)
Тmin
(С)
Tmax
(С)
R
(мм)
SD
(см)
09:56 21.05   16 км    10/10 810 м  +10.0  +8.3  89  +9  +9    1011.4  989.5         
10:24 21.05 В  11 км  слабый дождь  10/8 810 м
[средняя] 
+10.0  +8.3  89  +9  +9      989.5         
10:34 21.05 В  16 км    10/10 870 м  +10.0  +8.3  89  +8  +8      989.5         
10:56 21.05 ЮВ  6 км  слабый дождь, дымка  10/10 810 м  +10.0  +8.3  89  +9  +9    1011.3  989.5  +10.0  +10.6  1.5   
11:33 21.05 ЮВ  6 км  слабый дождь, дымка  10/10 120 м  +10.0  +8.3  89  +9  +9      989.2         
11:56 21.05 Ю  6 км  слабый дождь, дымка  10/10 120 м  +10.0  +8.3  89  +8  +8    1011.5  989.5         
12:56 21.05   16 км    10/10 450 м  +10.0  +8.9  93  +9  +9    1011.5  989.5         
13:06 21.05   14 км    10/10 450 м  +10.0  +8.9  93  +9  +9      989.5         
13:15 21.05 ЮВ  14 км  слабый дождь  10/10 450 м  +10.6  +8.9  89  +9  +9      989.5         
13:24 21.05   16 км    10/10 780 м  +10.6  +8.9  89  +10  +10      989.5         
13:56 21.05 Ю  6 км  слабый дождь, дымка  10/10 780 м  +10.6  +8.9  89  +10  +10    1011.3  989.5      2.0   
14:40 21.05 ЮВ  3 км  дождь, дымка  10/10 600 м  +10.6  +8.9  89  +9  +9      989.5         
14:44 21.05   5 км  слабый дождь, дымка  10/10 390 м  +10.6  +8.9  89  +10  +10      989.8         
14:56 21.05 ЮВ  4 км  дождь, дымка  10/10 360 м  +10.6  +8.9  89  +9  +9    1011.9  989.8         
15:10 21.05 ЮВ  6 км  слабый дождь, дымка  10/10 360 м  +10.6  +9.4  92  +9  +9      989.8         
15:22 21.05 ЮВ  4 км  слабый дождь, дымка  10/10 420 м  +10.6  +8.9  89  +10  +10      989.8         
15:30 21.05 нст  14 км  слабый дождь  10/10 420 м  +11.1  +8.9  86  +10  +10      989.8         
15:48 21.05 нст  16 км    10/10 780 м  +11.7  +8.9  83  +10  +10      989.8         
15:56 21.05 нст  16 км    10/10 810 м  +12.2  +8.3  77  +12  +12    1011.8  989.8         
16:26 21.05 нст  16 км  слабый дождь  10/10 750 м  +12.8  +8.3  74  +12  +12      989.5         
16:56 21.05 З  10 км  слабый дождь  8/8 840 м  +12.2  +7.8  74  +10  +12    1012.1  990.2  +10.0  +12.8  5.3   
17:08 21.05 нст  16 км  слабый дождь  10/10 660 м  +12.8  +8.3  74  +12  +12      989.8         
17:16 21.05 СЗ  16 км  слабый дождь  10/10 810 м  +12.8  +7.2  69  +11  +11      989.8         
17:56 21.05 нст  3
{8} 
16 км    8/8 810 м  +13.3  +7.8  69  +12  +15    1012.2  990.2         
18:56 21.05 С  5
{9} 
14 км  слабый дождь  10/10 780 м  +13.3  +8.9  75  +11  +11    1011.8  989.8         
19:23 21.05 СЗ  6
{10} 
11 км  слабый дождь  10/10 810 м  +13.3  +8.9  75  +11  +11      989.8         
19:56 21.05 С  6
{8} 
16 км    8/8 810 м  +14.4  +7.8  65  +12  +14    1011.7  989.8      0.8   
20:56 21.05 СЗ  4
{9} 
13 км  слабый дождь  8/8 870 м  +13.9  +8.9  72  +12  +14    1011.4  989.5         
21:56 21.05 СЗ  7
{11} 
16 км    8/8 720 м  +14.4  +7.8  65  +12  +13    1011.0  989.2         
22:14 21.05 СЗ  4
{10} 
13 км  слабый дождь  10/10 720 м  +13.3  +8.3  72  +11  +11      988.8         
22:21 21.05 СЗ  13 км  слабый дождь  10/10 780 м  +13.3  +8.3  72  +11  +11      988.8         
22:56 21.05 СЗ  13 км  слабый дождь  10/10 630 м  +12.8  +8.3  74  +10  +10    1010.5  988.5  +12.2  +15.0  1.0   
23:04 21.05 СЗ  6
{11} 
16 км  слабый дождь  10/10 720 м  +12.8  +8.3  74  +10  +10      988.5         
23:36 21.05 СЗ  8
{13} 
16 км    8/8 840 м  +12.8  +7.2  69  +10  +10      988.5         
23:56 21.05 СЗ  6
{10} 
16 км    8/8 780 м  +12.8  +7.2  69  +10  +11    1010.2  988.2         
00:04 22.05 СЗ  6
{11} 
13 км    8/8 810 м  +12.8  +7.8  72  +10  +11      988.5         
00:19 22.05 СЗ  14 км  слабый дождь  10/10 750 м  +12.2  +7.8  74  +9  +9      988.2         
00:48 22.05 СЗ  6
{11} 
8 км  слабый дождь  10/10 720 м  +11.7  +7.8  77  +9  +9      987.8         
00:56 22.05 СЗ  6
{9} 
8 км  слабый дождь  10/10 720 м  +11.7  +7.8  77  +9  +9    1009.9  987.8         
01:56 22.05 С  11 км  слабый дождь  10/10 690 м  +11.1  +8.3  83  +9  +9    1010.0  987.8         
02:22 22.05 СЗ  6
{8} 
14 км  слабый дождь  10/10 750 м  +11.7  +7.8  77  +9  +9      987.8         
02:56 22.05 СЗ  16 км    10/10 780 м  +11.7  +7.8  77  +9  +9    1009.9  987.8         
03:56 22.05 СЗ  16 км    10/10 720 м  +11.1  +7.8  80  +9  +9    1010.5  988.5         
04:56 22.05 С  16 км    5/2 660 м
[средняя] 
+10.6  +8.3  86  +10  +10    1010.6  988.8  +10.6  +13.3  0.3   
05:56 22.05   16 км    10/10 1110 м  +10.6  +8.9  89  +10  +10    1010.7  988.8         
06:56 22.05 СВ  16 км    8/8 1050 м  +10.6  +7.8  83  +9  +9    1010.2  988.2         
07:56 22.05 СЗ  16 км    5/0 3000 м
[средняя] 
+10.0  +7.2  83  +8  +8    1010.1  988.2         
08:56 22.05   16 км    ясно  +8.9  +7.2  89  +8  +8    1010.0  988.2         

 

Местоположение метеостанции Ukiah Municipal Airport: широта 39.1258 долгота -123.2008 высота над уровнем моря 187 м.

В архиве по умолчанию представлена погода в Юкайе за последние 1-2 суток. Обновление информации о фактической погоде в базе происходит ежечасно! Архивные данные за месяц целиком и за предыдущие месяцы Вы можете получить, выбрав интересующий диапазон дат из раскрывающегося списка и нажав кнопку "Ввод!".

Внимание! Архив погоды МЕТАР в базе сайта в настоящее время начинается c 1 января 2011 г. Нет смысла пытаться выбрать более раннюю дату.

Внимание! Время в таблицах - всемирное. Для получения местного времени необходимо прибавить поправку, которая в Юкайе равна -8 ч.

Ветер - указаны скорость ветра в м/с и направление, откуда дует ветер: С - северный, СВ - северо-восточный, В - восточный, ЮВ - юго-восточный, Ю - южный, ЮЗ - юго-западный, З - западный, СЗ - северо-западный.
Видимость - горизонтальная дальность видимости в метрах или километрах. При видимости от 1 до 10 км при отсутствии осадков обычно наблюдается дымка, при ухудшении видимости до 1 км и менее - туман. В сухую погоду видимость может ухудшаться дымом, пылью или мглою.
Атмосферные явления - указаны явления, наблюдавшиеся в указанный момент времени.
Облачность - указаны через наклонную черту верхняя и нижняя облачность в баллах и высота нижней границы облаков в метрах. Внимание: облачность, как и прочие метеорологические величины в США измеряются автоматическими метеостанциями. Указанные значения в баллах носят условный характер и показывают процент времени, в течение которого, в среднем, лазерный луч высотомера отражался от облаков обратно.
T - Температура воздуха - температура, измеренная на высоте 2 м над землей.
Td - Температура точки росы - температура, при понижении до которой содержащийся в воздухе водяной пар достигнет насыщения.
f - Относительная влажность воздуха - влажноcть воздуха, измеренная на высоте 2 м над землей.
Te - Эффективная температура - температура, которую ощущает одетый по сезону человек в тени. Характеристика душности погоды. При расчете учитывается влияние влажности воздуха и скорости ветра на теплоощущения человека.
Tes - Эффективная температура на солнце - температура, которую ощущает человек, с поправкой на солнечный нагрев. Характеристика знойности погоды. Зависит от высоты солнца над горизонтом, облачности и скорости ветра. Ночью, в пасмурную погоду, а также при ветре 12 м/с и более поправка равна нулю.
P - Атмосферное давление - приведенное к уровню моря атмосферное давление.
Po - Атмосферное давление - измеренное на уровне метеостанции атмосферное давление.
Tmin - Минимальная температура - минимум температуры воздуха на высоте 2 м над землей.
Tmax - Максимальная температура - максимум температуры воздуха на высоте 2 м над землей.
R - Количество осадков - Количество выпавших осадков за 3 или 6 часов, мм.
SD - Снежный покров - Высота снежного покрова, см.